www.pogodaiklimat.ru
ПОГОДА в Бивер-Фолсе
Время
и дата
06:47 16.08
06:55 16.08
07:15 16.08
07:35 16.08
07:47 16.08
07:55 16.08
08:15 16.08
08:35 16.08
08:47 16.08
08:55 16.08
09:15 16.08
09:35 16.08
09:47 16.08
09:55 16.08
10:15 16.08
10:35 16.08
10:47 16.08
10:55 16.08
11:15 16.08
11:35 16.08
11:47 16.08
11:55 16.08
12:15 16.08
12:35 16.08
12:47 16.08
12:55 16.08
13:15 16.08
13:35 16.08
13:47 16.08
13:55 16.08
14:15 16.08
14:35 16.08
14:47 16.08
14:55 16.08
15:15 16.08
15:35 16.08
15:55 16.08
16:15 16.08
16:35 16.08
16:47 16.08
16:55 16.08
17:15 16.08
17:35 16.08
17:47 16.08
17:55 16.08
18:15 16.08
18:35 16.08
18:55 16.08
Ветер
(напр.,м/с)
Видим. Явления Облачность Т
(С)
Тd
(С)
f
(%)
Тe
(С)
Тes
(С)
Комфортность P
(гПа)
Po
(гПа)
Тmin
(С)
Tmax
(С)
R
(мм)
R24
(мм)
S
(см)
В 1 16 км 10/0 2100 м
[Ac]
+18.0 +15.0 83 +19 +19 971.9
штиль 0 16 км 10/0 2100 м
[Ac]
+18.2 +14.9 81 +18 +19 971.9
В 1 16 км 10/0 2550 м
[Ac]
+18.6 +15.0 80 +20 +20 971.9
штиль 0 16 км 8/0 2550 м
[Ac]
+19.6 +15.0 75 +21 +22 комфорт 972.2
В 1 16 км 8/0 2550 м
[Ac]
+21.0 +15.0 69 +25 +25 комфорт 972.2
В 1 16 км 8/0 3600 м
[Ac]
+21.5 +15.0 66 +25 +25 комфорт 972.2
В 1 16 км 5/0 3600 м
[Ac]
+21.5 +14.0 62 +24 +27 комфорт 972.2
В 1 16 км ясно +21.3 +14.1 63 +24 +28 комфорт 972.2
штиль 0 16 км ясно +21.0 +14.0 64 +24 +30 комфорт 972.2
В 1 16 км 5/0 3600 м
[Ac]
+21.4 +14.5 65 +24 +27 комфорт 972.2
В 1 16 км 5/0 3600 м
[Ac]
+23.4 +14.2 56 +27 +32 душно 972.2
В 1 16 км 5/5 840 м
[Ac]
+23.8 +14.3 55 +26 +31 жарко 972.2
В 1 16 км 5/5 840 м
[Ac]
+24.0 +14.0 54 +26 +30 жарко 972.5
В 1 16 км 5/5 840 м
[Ac]
+24.0 +13.6 52 +26 +30 жарко 972.5
штиль 0 16 км 5/0 3600 м
[Ac]
+24.3 +13.7 52 +27 +38 жарко 972.5
В 1 16 км 5/5 1020 м
[Ac]
+24.6 +13.4 50 +27 +33 жарко 972.5
ЮВ 1 16 км 5/5 1020 м +25.0 +13.0 47 +27 +32 жарко 972.5
СВ 1 16 км 5/5 1020 м +25.4 +13.3 47 +27 +34 жарко 972.5
В 1 16 км 5/5 1020 м +25.8 +13.8 47 +28 +35 жарко 972.5
В 1 16 км 8/8 1080 м +26.9 +13.1 43 +29 +31 жарко 972.5
В 2 16 км 5/5 1080 м +26.0 +13.0 45 +28 +33 жарко 972.5
В 1 16 км 5/5 1080 м +25.8 +13.2 46 +28 +34 жарко 972.5
В 1 16 км 5/5 1290 м +26.0 +12.3 43 +28 +35 жарко 972.5
В 1 16 км 5/5 1200 м +26.2 +12.1 41 +28 +35 жарко 972.5
В 1 16 км 5/5 1200 м +26.0 +11.0 39 +27 +34 жарко 972.5
В 1 16 км ясно +26.4 +11.5 39 +28 +45 жарко 972.5
ЮВ 1 16 км 5/5 1440 м +26.6 +11.3 38 +28 +35 жарко 972.2
ЮВ 1 16 км 8/8 1440 м +26.9 +11.4 38 +28 +31 жарко 972.2
ЮВ 2 16 км 5/5 1440 м +28.0 +12.0 37 +29 +35 жарко 972.2
СВ 1 16 км 8/8 1440 м +28.0 +11.0 35 +29 +32 жарко 972.2
В 1 16 км 8/8 1500 м +27.1 +9.9 34 +28 +30 жарко 972.2
В 1 16 км 8/5 1950 м
[Ac]
+26.0 +10.9 39 +27 +31 жарко 971.9
В 1 16 км 8/5 1650 м
[Ac]
+28.0 +11.0 35 +29 +34 жарко 971.6
В 1 16 км 8/5 1650 м
[Ac]
+26.6 +11.1 38 +28 +32 жарко 971.6
В 1 16 км 10/5 1500 м
[Ac]
+26.0 +10.9 39 +27 +30 жарко 971.6
В 1 16 км 10/8 1800 м
[Ac]
+26.5 +11.2 38 +27 +29 жарко 971.6
В 1 16 км 8/5 1800 м
[Ac]
+26.1 +10.1 37 +27 +31 жарко 971.6
ЮВ 1 16 км 5/0 3300 м
[Ac]
+26.1 +10.4 37 +27 +31 жарко 971.6
Ю 1 16 км 5/5 1950 м
[Ac]
+26.6 +10.4 36 +27 +31 жарко 971.6
Ю 1 16 км 5/5 1950 м +27.0 +10.0 34 +27 +31 жарко 971.6
Ю 1 16 км 5/5 1800 м
[Ac]
+27.7 +11.1 36 +29 +32 жарко 971.6
Ю 1 16 км 5/5 1800 м
[Ac]
+25.8 +11.9 42 +27 +29 жарко 971.6
штиль 0 16 км 5/5 1800 м
[Ac]
+25.8 +11.8 42 +27 +30 жарко 971.9
СВ 1 16 км 8/8 1800 м
[Ac]
+26.0 +14.0 48 +28 +29 жарко 971.9
СВ 1 16 км 8/8 1800 м
[Ac]
+25.0 +14.5 52 +28 +28 жарко 971.9
С 1 16 км 8/5 1650 м
[Ac]
+24.2 +15.2 57 +27 +27 жарко 971.9
СВ 1 16 км 8/5 1950 м
[Ac]
+23.8 +15.4 59 +27 +27 жарко 972.2
СВ 2 16 км гроза 8/8 1950 м +23.1 +15.0 60 +27 +27 душно 972.2
Местоположение метеостанции Beaver County Airport: широта 40.7667 долгота -80.4000 высота над уровнем моря 382 м.
В архиве по умолчанию представлена погода в Бивер-Фолсе за последние 1-2 суток. Обновление информации о фактической погоде в базе происходит ежечасно! Архивные данные за месяц целиком и за предыдущие месяцы Вы можете получить, выбрав интересующий диапазон дат из раскрывающегося списка и нажав кнопку "Ввод!".
Внимание! Архив погоды МЕТАР в базе сайта по станциям, не включенным в климатический монитор, хранится не более 60 дней. Нет смысла пытаться выбрать более раннюю дату.
*Определитесь, кто Вы:
Внимание! Время в таблицах - местное (без учета летнего времени). Для получения всемирного времени необходимо вычесть поправку, которая равна -5 ч.
Смотрите также архив погоды в соседних городах и на ближайших метеорологических станциях:
Партнеры нашего сайта:      
Пояснения к столбцам:
  • Ветер - указаны скорость ветра в м/с - средняя за 10 мин, порывы в срок и между сроками (в фигурных скобках) и направление, откуда дует ветер: С - северный,
  • СВ - северо-восточный, В - восточный, ЮВ - юго-восточный, Ю - южный, ЮЗ - юго-западный, З - западный, СЗ - северо-западный.
  • Видимость - горизонтальная дальность видимости в метрах или километрах. При видимости от 1 до 10 км при отсутствии осадков обычно наблюдается дымка, при ухудшении видимости до 1 км и менее - туман. В сухую погоду видимость может ухудшаться дымом, пылью или мглою.
  • Явления - указаны атмосферные явления, наблюдавшиеся в срок или в последний час перед сроком; фигурными скобками обозначены явления, наблюдавшиеся между сроками (за 1-3 часа до срока); квадратными скобками обозначены град или гололедные отложения с указанием их диаметра в мм.
  • Облачность - указаны через наклонную черту общая и нижняя облачность в баллах и высота нижней границы облаков в метрах; квадратными скобками обозначены формы облаков: Ci - перистые, Cs - перисто-слоистые, Cc - перисто-кучевые, Ac - высококучевые, As - высокослоистые, Sc - слоисто-кучевые, Ns - слоисто-дождевые, Cu - кучевые, Cb - кучево-дождевые. Подробнее классификацию облаков см. в Атласе облаков (PDF).
  • T - Температура воздуха - температура, измеренная на высоте 2 м над землей.
  • Td - Температура точки росы - температура, при понижении до которой содержащийся в воздухе водяной пар достигнет насыщения.
  • f - Относительная влажность воздуха - влажноcть воздуха, измеренная на высоте 2 м над землей.
  • Te - Эффективная температура - температура, которую ощущает одетый по сезону человек в тени. Характеристика душности погоды. При расчете учитывается влияние влажности воздуха и скорости ветра на теплоощущения человека.
  • Tes - Эффективная температура на солнце - температура, которую ощущает человек, с поправкой на солнечный нагрев. Характеристика знойности погоды. Зависит от высоты солнца над горизонтом, облачности и скорости ветра. Ночью, в пасмурную погоду, а также при ветре 12 м/с и более поправка равна нулю.
  • P - Атмосферное давление - приведенное к уровню моря атмосферное давление.
  • Po - Атмосферное давление - измеренное на уровне метеостанции атмосферное давление.
  • Tmin - Минимальная температура - минимум температуры воздуха на высоте 2 м над землей.
  • Tmax - Максимальная температура - максимум температуры воздуха на высоте 2 м над землей.
  • R - Количество осадков - Количество выпавших осадков за период времени, мм. При наведении курсора мыши на число - период времени, за который выпало указанное количество осадков.
  • R24 - Количество осадков - Количество выпавших осадков за 24 часа, мм.
  • S - Снежный покров - Высота снежного покрова, см. При наведении курсора мыши на число - состояние снежного покрова и степень покрытия местности в баллах.